Miscellaneous Local Product
Issued by NWS North Platte, NE

Home | Current Version | Previous Version | Text Only | Print | Product List | Glossary On
Versions: 1 2 3 4 5 6 7 8 9 10 11 12 13 14 15 16 17 18 19 20 21 22 23 24 25 26 27 28 29 30 31 32 33 34 35 36 37 38 39 40 41 42 43 44 45 46 47 48 49 50
000
AXUS43 KLBF 020910
MISLBF


WESTERN AND NORTH CENTRAL NEBRASKA HOURLY WEATHER ROUNDUP
NATIONAL WEATHER SERVICE NORTH PLATTE NE
400 AM CDT THU OCT 02 2014

***STATIONS NOT REPORTING VARIABLES SUCH AS SKY/WEATHER OR
PRESSURE ARE PROVIDED BY THE NEBRASKA DEPARTMENT OF
ROADS...RAWS...AND APRS NETWORKS...AND ARE NOT UNDER
NATIONAL WEATHER SERVICE QUALITY CONTROL***

...OBSERVATIONS IN AND NEAR THE EASTERN PANHANDLE OF NEBRASKA...

CITY           SKY/WX    TMP DP  RH WIND       PRES   REMARKS
PINE RIDGE     CLEAR     43  42  97 W3        30.00F
CHADRON        CLEAR     42  40  92 SW8       30.03S
ALLIANCE       CLOUDY    44  44 100 W7        30.03R
SIDNEY         CLOUDY    45  42  89 NW10      30.05S
WHITECLAY        N/A     40  39  96 CALM        N/A
RUSHVILLE        N/A     40  38  95 NW10        N/A  WCI  33
LISCO            N/A     47  44  88 W8          N/A
BIG SPRINGS      N/A     49  46  91 N3          N/A
$$

...OBSERVATIONS IN NORTH CENTRAL NEBRASKA...

CITY           SKY/WX    TMP DP  RH WIND       PRES   REMARKS
VALENTINE      CLOUDY    49  47  93 W3        29.96F
THEDFORD       CLOUDY    50  48  93 NW9       29.97S
AINSWORTH      CLOUDY    49  49  99 CALM      29.95F
O`NEILL        RAIN      52  52  98 N12G17    29.93F
ORD            LGT RAIN  52  50  93 N13       29.88F
BROKEN BOW     LGT RAIN  52  50  93 N14G25    29.91R
SPRINGVIEW       N/A     50  48  93 CALM        N/A
ROSE             N/A     51  51  99 N9          N/A
NEWPORT          N/A     51  51  99 NW5         N/A
SARGENT          N/A     51  49  94 N3G15       N/A
COMSTOCK         N/A     54  53  95 N14         N/A
CHAMBERS         N/A     51  50  96 W3          N/A
EWING            N/A     53  51  94 NW5G12      N/A
$$

...OBSERVATIONS IN SOUTHWEST NEBRASKA AND FAR NORTHEAST COLORADO...

CITY           SKY/WX    TMP DP  RH WIND       PRES   REMARKS
WRAY           PTSUNNY   48  48 100 NW9       30.02F
HOLYOKE        FAIR      50  45  81 NW7       30.04R
IMPERIAL       CLOUDY    50  47  89 NW9       29.99R
OGALLALA       CLOUDY    48  46  93 NW6       30.00S
NORTH PLATTE   LGT RAIN  50  48  93 N7        29.94F
MCCOOK         CLOUDY    52  49  89 NE16      29.92S
LEXINGTON      LGT RAIN  53  51  94 N8        29.95R
PAXTON           N/A     51  48  90 CALM        N/A
SUTHERLAND       N/A     46  43  91 E7          N/A
BRADY            N/A     50  47  90 CALM        N/A
GOTHENBURG       N/A     52  47  83 N12         N/A
CALLAWAY         N/A     50  49  95 N12         N/A
$$

...SOME WEATHER OBSERVATIONS FROM AROUND THE REGION...

CITY           SKY/WX    TMP DP  RH WIND       PRES   REMARKS
DENVER         CLOUDY    43  39  86 W9        30.09F
LARAMIE        PTCLDY    32  30  92 N3        30.12R
CHEYENNE       MOCLDY    38  33  82 NW9       30.09S WCI  31
SCOTTSBLUFF    PTCLDY    40  39  97 NW6       30.06F
RAPID CITY     CLEAR     40  36  86 NW5       29.99S
PIERRE         CLOUDY    51  48  89 W6        29.92R
WINNER         LGT RAIN  52  50  93 W6        29.95S
SIOUX FALLS    MOCLDY    54  48  80 N9        29.84F
OMAHA          FOG       64  63  96 SE5       29.77R VSB 1/4
GRAND ISLAND   CLOUDY    56  54  93 N18G26    29.84F
KANSAS CITY    CLOUDY    68  64  87 SE10      29.72F
WICHITA        PTCLDY    71  63  75 SE10      29.67F
HAYS           MOCLDY    61  48  63 NW20      29.80S
LIBERAL        MOCLDY    57  45  62 N23       29.83S
GOODLAND       CLOUDY    48  45  89 NW22      29.99R
$$



USA.gov is the U.S. government's official web portal to all federal, state and local government web resources and services.